HB9Y1 Weather Reports


time (UTC)temp
C
wind
direction
speed
KPH
gust
KPH
rain 1hr
cm
rain 24hr
cm
rain mn
cm
humidity
%
barometer
mb
20260507213924 5 0.0 0.0 0.00 0.00 0.00 77 1012.0
20260507212931 5 0.0 0.0 0.00 0.00 0.00 78 1012.0
20260507211924 5 76 3.2 8.0 0.00 0.00 0.00 76 1012.0
20260507210932 5 21 1.6 3.2 0.00 0.00 0.00 76 1012.0
20260507205944 5 0.0 0.0 0.00 0.00 0.00 76 1012.0
20260507204922 5 0.0 0.0 0.00 0.00 0.00 77 1011.9
20260507203924 5 0.0 0.0 0.00 0.00 0.00 77 1011.8
20260507202931 5 40 1.6 8.0 0.00 0.00 0.00 77 1011.6
20260507201924 5 0.0 0.0 0.00 0.00 0.00 75 1011.3
20260507200931 5 0.0 0.0 0.00 0.00 0.00 77 1011.2
20260507195924 5 0.0 0.0 0.00 0.00 0.00 76 1011.2
20260507194931 5 0.0 0.0 0.00 0.00 0.00 78 1011.4
20260507193944 5 0.0 0.0 0.00 0.00 0.00 79 1011.2
20260507192922 5 0.0 0.0 0.00 0.00 0.00 79 1011.2
20260507191924 5 54 3.2 3.2 0.00 0.00 0.00 77 1011.0
20260507190931 5 76 1.6 12.9 0.00 0.00 0.00 79 1010.8
20260507185924 5 0.0 0.0 0.00 0.00 0.00 79 1011.1
20260507184932 5 0.0 0.0 0.00 0.00 0.00 80 1010.8
20260507183943 5 0.0 0.0 0.00 0.00 0.00 82 1010.8
20260507182931 5 0.0 0.0 0.00 0.00 0.00 80 1010.8
20260507181923 5 0.0 0.0 0.00 0.00 0.00 80 1010.8
20260507180922 6 0.0 0.0 0.00 0.00 0.00 79 1010.8
20260507175924 7 339 0.0 3.2 0.00 0.00 0.00 79 1010.8
20260507174932 8 47 0.0 3.2 0.00 0.00 0.00 77 1010.4
20260507173923 9 288 1.6 3.2 0.00 0.00 0.00 74 1010.3
20260507172932 10 0.0 0.0 0.00 0.00 0.00 68 1010.3
20260507171923 10 279 3.2 8.0 0.00 0.00 0.00 71 1010.4
20260507170931 10 308 4.8 16.1 0.00 0.00 0.00 70 1010.3
20260507165924 10 51 1.6 8.0 0.00 0.00 0.00 69 1010.0
20260507164922 10 280 4.8 8.0 0.00 0.00 0.00 69 1010.0
20260507163924 11 265 6.4 12.9 0.00 0.08 0.00 70 1010.0
20260507162931 11 290 6.4 16.1 0.00 0.08 0.00 66 1010.0
20260507161923 11 252 3.2 8.0 0.00 0.13 0.00 67 1009.9
20260507160931 11 266 1.6 8.0 0.00 0.30 0.00 69 1009.6
20260507155923 12 272 4.8 8.0 0.00 0.58 0.00 69 1010.0
20260507154932 12 282 6.4 8.0 0.00 1.02 0.00 67 1009.6
20260507153944 12 280 4.8 8.0 0.00 1.47 0.00 68 1009.6
20260507152921 12 296 11.3 16.1 0.00 1.75 0.00 66 1010.0
20260507151923 12 300 9.7 16.1 0.00 1.96 0.00 67 1009.6
20260507150932 12 280 4.8 8.0 0.00 2.08 0.00 65 1010.0
20260507145923 12 281 6.4 12.9 0.00 2.13 0.00 66 1009.6
20260507144932 12 290 0.0 3.2 0.00 2.13 0.00 66 1009.9
20260507143923 11 245 6.4 16.1 0.00 2.13 0.00 68 1009.6
20260507142931 11 260 8.0 12.9 0.00 2.13 0.00 63 1009.6
20260507141924 10 237 17.7 20.9 0.00 2.13 0.00 65 1009.6
20260507140942 10 249 6.4 12.9 0.00 2.13 0.00 63 1010.0
20260507135923 10 256 8.0 16.1 0.00 2.13 0.00 64 1009.8
20260507134932 9 237 4.8 8.0 0.00 2.13 0.00 68 1010.0
20260507133923 9 254 16.1 20.9 0.00 2.13 0.00 69 1010.0
20260507132931 9 248 6.4 12.9 0.00 2.13 0.00 66 1010.0
20260507131923 9 196 3.2 8.0 0.00 2.13 0.00 66 1010.0
20260507130932 8 215 6.4 12.9 0.00 2.13 0.00 63 1010.3
20260507125923 8 245 11.3 16.1 0.00 2.13 0.00 67 1010.0
20260507124922 8 0.0 0.0 0.00 2.13 0.00 65 1010.0
20260507123924 8 296 1.6 8.0 0.00 2.13 0.00 67 1010.0
20260507122931 9 258 3.2 12.9 0.00 2.13 0.00 69 1010.0
20260507121923 8 255 8.0 16.1 0.00 2.13 0.00 71 1010.0
20260507120931 8 229 9.7 12.9 0.00 2.13 0.00 66 1010.0
20260507115924 8 232 1.6 8.0 0.00 2.13 0.00 67 1010.0
20260507115011 8 233 8.0 12.9 0.00 2.13 0.00 72 1010.0
20260507113923 8 154 4.8 8.0 0.00 2.13 0.00 68 1010.0
20260507112922 7 251 11.3 16.1 0.00 2.13 0.00 74 1010.0
20260507111923 7 50 8.0 12.9 0.00 2.13 0.00 72 1010.0
20260507110931 7 349 1.6 8.0 0.00 2.13 0.00 73 1010.0
20260507105923 7 251 8.0 12.9 0.00 2.13 0.00 77 1010.1
20260507104931 7 238 9.7 16.1 0.00 2.13 0.00 75 1010.0
20260507104044 7 233 8.0 12.9 0.00 2.13 0.00 78 1010.4
20260507102931 6 194 0.0 3.2 0.00 2.13 0.00 76 1010.4
20260507101923 6 223 4.8 8.0 0.00 2.13 0.00 78 1010.4
20260507100922 6 231 0.0 3.2 0.00 2.13 0.00 81 1010.4
20260507095944 5 0.0 0.0 0.00 2.13 0.00 80 1010.2
20260507094951 6 265 0.0 3.2 0.00 2.13 0.00 86 1010.4
20260507093923 6 260 3.2 3.2 0.00 2.13 0.00 84 1010.1
20260507092931 6 241 6.4 8.0 0.00 2.13 0.00 85 1010.0
20260507091923 6 234 0.0 3.2 0.00 2.13 0.00 85 1010.0
20260507090931 5 0.0 0.0 0.00 2.13 0.00 87 1010.0
20260507085943 5 263 4.8 8.0 0.00 2.13 0.00 85 1010.0
20260507084925 5 0.0 0.0 0.00 2.13 0.00 85 1010.0
20260507083923 4 0.0 0.0 0.00 2.13 0.00 89 1010.0
20260507082932 4 0.0 0.0 0.00 2.13 0.00 90 1010.0
20260507081923 3 0.0 0.0 0.00 2.16 0.00 90 1009.9
20260507080931 3 269 3.2 8.0 0.00 2.18 0.00 96 1010.0
20260507075922 2 281 0.0 3.2 0.00 2.18 0.00 98 1010.0
20260507074931 2 0.0 0.0 0.00 2.18 0.00 99 1010.0
20260507073923 2 0.0 0.0 0.00 2.18 0.00 99 1010.0
20260507072942 2 0.0 0.0 0.00 2.18 0.00 99 1009.6
20260507071923 2 0.0 0.0 0.00 2.26 0.00 94 1009.6
20260507070931 2 0.0 0.0 0.00 2.29 0.00 95 1009.6
20260507065923 2 0.0 0.0 0.00 2.34 0.00 95 1009.5
20260507064931 2 0.0 0.0 0.00 2.34 0.00 97 1009.2
20260507063923 2 295 3.2 3.2 0.00 2.34 0.00 98 1009.2
20260507062931 2 274 1.6 3.2 0.00 2.41 0.00 99 1009.2
20260507061923 2 0.0 0.0 0.00 2.41 0.00 96 1009.2
20260507060922 2 0.0 0.0 0.00 2.41 0.00 98 1009.2
20260507055923 2 0.0 0.0 0.00 2.41 0.00 98 1009.2
20260507054931 2 0.0 0.0 0.00 2.41 0.00 94 1008.8
20260507053923 1 0.0 0.0 0.00 2.41 0.00 92 1008.8
20260507052931 1 0.0 0.0 0.00 2.41 0.00 90 1008.4
20260507051923 1 80 4.8 8.0 0.00 2.41 0.00 85 1008.4
20260507050931 1 73 3.2 3.2 0.00 2.41 0.00 96 1008.4
20260507045923 1 0.0 0.0 0.00 2.41 0.00 99 1008.1
20260507044922 1 0.0 0.0 0.00 2.41 0.00 95 1008.4
20260507043923 1 0.0 0.0 0.00 2.41 0.00 90 1008.4
20260507042931 1 0.0 0.0 0.00 2.41 0.00 90 1008.0
20260507041923 1 0.0 0.0 0.00 2.41 0.00 94 1008.0
20260507040931 1 0.0 0.0 0.00 2.41 0.00 99 1008.0
20260507035923 1 0.0 0.0 0.00 2.41 0.00 99 1008.0
20260507034931 1 0.0 0.0 0.00 2.41 0.00 99 1008.0
20260507033923 1 0.0 0.0 0.00 2.41 0.00 99 1008.0
20260507032922 1 0.0 0.0 0.00 2.41 0.00 99 1008.0
20260507031923 1 0.0 0.0 0.00 2.41 0.00 99 1008.0
20260507030931 1 0.0 0.0 0.00 2.41 0.00 99 1008.0
20260507025923 1 0.0 0.0 0.00 2.41 0.00 99 1008.0
20260507024951 1 0.0 0.0 0.00 2.41 0.00 99 1008.0
20260507023923 1 0.0 0.0 0.00 2.41 0.00 99 1008.0
20260507022931 1 0.0 0.0 0.00 2.41 0.00 99 1008.0
20260507021923 1 0.0 0.0 0.00 2.41 0.00 99 1008.0
20260507020922 1 90 1.6 8.0 0.00 2.41 0.00 99 1008.0
20260507015923 1 0.0 0.0 0.00 2.41 0.00 99 1008.0
20260507014931 1 0.0 0.0 0.00 2.41 0.00 99 1008.0
20260507013923 0 0.0 0.0 0.00 2.41 0.00 99 1007.7
20260507012931 0 0.0 0.0 0.00 2.41 0.00 99 1007.9
20260507011923 0 0.0 0.0 0.00 2.41 0.00 99 1007.6
20260507011011 0 0.0 0.0 0.00 2.41 0.00 99 1007.9
20260507005923 0 0.0 0.0 0.00 2.41 0.00 99 1007.6
20260507004942 0 0.0 0.0 0.00 2.41 0.00 99 1007.6
20260507003943 0 0.0 0.0 0.00 2.41 0.00 99 1007.6
20260507002931 0 0.0 0.0 0.00 2.41 0.00 99 1007.6
20260507001922 0 0.0 0.0 0.00 2.41 0.00 99 1007.6
20260507000931 0 0.0 0.0 0.00 2.41 0.00 99 1008.0
20260506235923 0 0.0 0.0 0.00 2.41 0.00 99 1007.6
20260506234931 0 0.0 0.0 0.00 2.41 0.00 99 1007.9
20260506233923 0 0.0 0.0 0.00 2.41 0.00 99 1007.9
20260506232942 0 0.0 0.0 0.00 2.41 0.00 99 1008.0
20260506231922 0 0.0 0.0 0.00 2.41 0.00 99 1008.0
20260506230931 0 0.0 0.0 0.00 2.41 0.00 99 1008.0
20260506225922 0 0.0 0.0 0.00 2.41 0.00 99 1008.0
20260506224930 1 0.0 0.0 0.00 2.41 0.00 99 1008.0
20260506223942 1 0.0 0.0 0.00 2.41 0.00 99 1008.0
20260506222930 1 0.0 0.0 0.00 2.41 0.00 99 1008.0
20260506221922 1 0.0 0.0 0.00 2.41 0.00 99 1007.7
20260506220921 1 0.0 0.0 0.00 2.41 0.00 99 1008.0
20260506215943 1 0.0 0.0 0.00 2.41 2.41 99 1007.6
20260506214930 1 0.0 0.0 0.00 2.41 2.41 99 1007.6